Weather History for Monticello, IA

Change the Weather History Date:

Wednesday, December 18, 2013

  Actual Average Record
Temperature  
Mean Temperature 22 °F -  
Max Temperature 37 °F 28 °F 55 °F (2002)
Min Temperature 6 °F 14 °F -7 °F (2005)
Degree Days  
Heating Degree Days 44    
Moisture  
Dew Point 18 °F    
Average Humidity 78    
Maximum Humidity 93    
Minimum Humidity 55    
Precipitation  
Precipitation 0.00 in - - ()
Sea Level Pressure  
Sea Level Pressure 29.92 in    
Wind  
Wind Speed 5 mph (SSE)    
Max Wind Speed 18 mph    
Max Gust Speed 24 mph    
Visibility 10 miles    
Events      
Averages and records for this station are not official NWS values.
T = Trace of Precipitation, MM = Missing Value Source: NWS Daily Summary

Daily Weather History Graph

Daily Weather History Graph

Search for Another Location

Airport:

Trip Planner

Search our weather history database for the weather conditions in past years. The results will help you decide how hot, cold, wet, or windy it might be!

Date:

Astronomy

Dec. 18, 2013 Rise Set
Actual Time 7:28 AM CST 4:34 PM CST
Civil Twilight 6:56 AM CST 5:06 PM CST
Nautical Twilight 6:21 AM CST 5:41 PM CST
Astronomical Twilight 5:47 AM CST 6:15 PM CST
Moon 6:08 PM CST (12/18) 8:06 AM CST (12/18)
Length of Visible Light 10h 09m
Length of Day
9h 05m
Full, 98% of the Moon is Illuminated
Dec 18
Full
Dec 25
Last Quarter
Jan 1
New
Jan 7
First Quarter
Jan 15
Full

Hourly Weather History & Observations

Time (CST) Temp. Windchill Dew Point Humidity Pressure Visibility Wind Dir Wind Speed Gust Speed Precip Events Conditions
12:15 AM 15.8 °F 8.6 °F 12.2 °F 86% 30.14 in 10.0 mi WNW 4.6 mph - N/A   Clear
12:35 AM 15.8 °F - 10.4 °F 79% 30.13 in 10.0 mi Calm Calm - N/A   Clear
12:55 AM 14.0 °F 6.5 °F 10.4 °F 86% 30.14 in 10.0 mi WNW 4.6 mph - N/A   Clear
1:15 AM 14.0 °F - 10.4 °F 86% 30.14 in 10.0 mi Calm Calm - N/A   Clear
1:35 AM 12.2 °F - 10.4 °F 92% 30.14 in 10.0 mi Calm Calm - N/A   Clear
1:55 AM 14.0 °F - 10.4 °F 86% 30.14 in 10.0 mi Calm Calm - N/A   Clear
2:15 AM 12.2 °F - 8.6 °F 85% 30.14 in 10.0 mi Calm Calm - N/A   Clear
2:35 AM 12.2 °F - 8.6 °F 85% 30.13 in 10.0 mi Calm Calm - N/A   Clear
2:55 AM 6.8 °F - 3.2 °F 85% 30.14 in 10.0 mi Calm Calm - N/A   Clear
3:15 AM 8.6 °F - 5.0 °F 85% 30.13 in 10.0 mi Calm Calm - N/A   Scattered Clouds
3:35 AM 12.2 °F - 10.4 °F 92% 30.11 in 10.0 mi Calm Calm - N/A   Overcast
3:55 AM 14.0 °F - 10.4 °F 86% 30.11 in 10.0 mi Calm Calm - N/A   Overcast
4:15 AM 14.0 °F - 10.4 °F 86% 30.10 in 10.0 mi Calm Calm - N/A   Scattered Clouds
4:35 AM 10.4 °F - 8.6 °F 92% 30.11 in 10.0 mi Calm Calm - N/A   Clear
4:55 AM 10.4 °F - 6.8 °F 85% 30.11 in 10.0 mi Calm Calm - N/A   Clear
5:15 AM 10.4 °F - 6.8 °F 85% 30.10 in 10.0 mi Calm Calm - N/A   Clear
5:35 AM 8.6 °F - 6.8 °F 92% 30.09 in 10.0 mi Calm Calm - N/A   Clear
5:55 AM 10.4 °F - 8.6 °F 92% 30.09 in 10.0 mi Calm Calm - N/A   Clear
6:15 AM 12.2 °F 4.3 °F 10.4 °F 92% 30.08 in 10.0 mi SE 4.6 mph - N/A   Clear
6:35 AM 12.2 °F 4.3 °F 10.4 °F 92% 30.08 in 10.0 mi SSE 4.6 mph - N/A   Clear
6:55 AM 14.0 °F 3.9 °F 10.4 °F 86% 30.07 in 10.0 mi SE 6.9 mph - N/A   Clear
7:15 AM 15.8 °F 5.1 °F 12.2 °F 86% 30.06 in 10.0 mi SE 8.1 mph - N/A   Clear
7:35 AM 15.8 °F 3.4 °F 10.4 °F 79% 30.03 in 10.0 mi SE 10.4 mph - N/A   Clear
7:55 AM 15.8 °F 3.4 °F 10.4 °F 79% 30.02 in 10.0 mi SSE 10.4 mph - N/A   Clear
8:15 AM 17.6 °F 5.0 °F 10.4 °F 73% 30.02 in 10.0 mi SE 11.5 mph - N/A   Clear
8:35 AM 17.6 °F 5.0 °F 12.2 °F 79% 30.01 in 10.0 mi SSE 11.5 mph - N/A   Clear
8:55 AM 19.4 °F 6.0 °F 12.2 °F 74% 30.01 in 10.0 mi SSE 13.8 mph - N/A   Clear
9:15 AM 21.2 °F 9.5 °F 12.2 °F 68% 30.00 in 10.0 mi SE 11.5 mph - N/A   Clear
9:35 AM 23.0 °F 10.6 °F 14.0 °F 68% 29.98 in 10.0 mi SSE 13.8 mph - N/A   Clear
9:55 AM 26.6 °F 14.3 °F 14.0 °F 59% 29.97 in 10.0 mi SSE 16.1 mph 23.0 mph N/A   Clear
10:15 AM 28.4 °F 16.2 °F 15.8 °F 59% 29.96 in 10.0 mi SSE 17.3 mph - N/A   Clear
10:35 AM 28.4 °F 15.8 °F 15.8 °F 59% 29.94 in 10.0 mi SSE 18.4 mph - N/A   Clear
10:55 AM 30.2 °F 18.5 °F 17.6 °F 60% 29.92 in 10.0 mi SSE 17.3 mph 24.2 mph N/A   Clear
11:15 AM 32.0 °F 21.6 °F 17.6 °F 55% 29.90 in 10.0 mi SSE 15.0 mph 24.2 mph N/A   Clear
11:35 AM 32.0 °F 21.6 °F 17.6 °F 55% 29.89 in 10.0 mi South 15.0 mph - N/A   Clear
11:55 AM 33.8 °F 24.3 °F 19.4 °F 56% 29.87 in 10.0 mi South 13.8 mph - N/A   Clear
12:15 PM 33.8 °F 23.5 °F 21.2 °F 60% 29.86 in 10.0 mi South 16.1 mph 21.9 mph N/A   Clear
12:35 PM 35.6 °F 26.2 °F 21.2 °F 56% 29.85 in 10.0 mi South 15.0 mph - N/A   Clear
12:55 PM 35.6 °F 26.2 °F 21.2 °F 56% 29.83 in 10.0 mi South 15.0 mph 23.0 mph N/A   Clear
1:15 PM 35.6 °F 25.9 °F 23.0 °F 60% 29.81 in 10.0 mi South 16.1 mph - N/A   Clear
1:35 PM 35.6 °F 26.2 °F 23.0 °F 60% 29.80 in 10.0 mi South 15.0 mph - N/A   Clear
1:55 PM 37.4 °F 28.2 °F 24.8 °F 60% 29.79 in 10.0 mi South 16.1 mph - N/A   Clear
2:15 PM 37.4 °F 28.9 °F 24.8 °F 60% 29.78 in 10.0 mi South 13.8 mph - N/A   Clear
2:35 PM 37.4 °F 29.3 °F 26.6 °F 65% 29.78 in 10.0 mi South 12.7 mph 19.6 mph N/A   Clear
2:55 PM 37.4 °F 29.8 °F 26.6 °F 65% 29.77 in 10.0 mi South 11.5 mph - N/A   Clear
3:15 PM 37.4 °F 29.3 °F 26.6 °F 65% 29.76 in 10.0 mi South 12.7 mph - N/A   Clear
3:35 PM 37.4 °F 29.3 °F 26.6 °F 65% 29.76 in - South 12.7 mph - N/A   Clear
3:55 PM 37.4 °F 29.8 °F 26.6 °F 65% 29.77 in 10.0 mi South 11.5 mph 17.3 mph N/A   Clear
4:15 PM 35.6 °F 29.9 °F 26.6 °F 70% 29.77 in 10.0 mi SSE 6.9 mph - N/A   Clear
4:35 PM 33.8 °F 27.7 °F 26.6 °F 75% 29.77 in 10.0 mi SSE 6.9 mph - N/A   Clear
4:55 PM 33.8 °F 27.0 °F 26.6 °F 75% 29.77 in 10.0 mi SSE 8.1 mph - N/A   Clear
5:15 PM 32.0 °F 24.8 °F 26.6 °F 80% 29.77 in 10.0 mi SSE 8.1 mph - N/A   Clear
5:35 PM 32.0 °F 26.4 °F 26.6 °F 80% 29.77 in 10.0 mi SSE 5.8 mph - N/A   Clear
5:55 PM 30.2 °F 23.4 °F 24.8 °F 80% 29.77 in 10.0 mi SSE 6.9 mph - N/A   Clear
6:15 PM 28.4 °F 21.2 °F 24.8 °F 86% 29.77 in 10.0 mi SSE 6.9 mph - N/A   Clear
6:35 PM 28.4 °F 21.2 °F 24.8 °F 86% 29.77 in 10.0 mi SSE 6.9 mph - N/A   Clear
6:55 PM 28.4 °F 21.2 °F 24.8 °F 86% 29.77 in 10.0 mi South 6.9 mph - N/A   Clear
7:15 PM 30.2 °F 21.9 °F 26.6 °F 86% 29.77 in 10.0 mi South 9.2 mph - N/A   Clear
7:35 PM 33.8 °F 27.7 °F 28.4 °F 81% 29.77 in 10.0 mi South 6.9 mph - N/A   Clear
7:55 PM 32.0 °F 26.4 °F 28.4 °F 87% 29.77 in 10.0 mi South 5.8 mph - N/A   Clear
8:15 PM 32.0 °F 28.7 °F 28.4 °F 87% 29.77 in 10.0 mi SSW 3.5 mph - N/A   Clear
8:35 PM 32.0 °F 27.5 °F 28.4 °F 87% 29.78 in 10.0 mi South 4.6 mph - N/A   Clear
8:55 PM 30.2 °F - 26.6 °F 86% 29.78 in 10.0 mi Calm Calm - N/A   Clear
9:15 PM 32.0 °F - 28.4 °F 87% 29.78 in 10.0 mi Calm Calm - N/A   Clear
9:35 PM 28.4 °F 24.6 °F 26.6 °F 93% 29.77 in 10.0 mi SSE 3.5 mph - N/A   Clear
9:55 PM 28.4 °F - 24.8 °F 86% 29.77 in 10.0 mi Calm Calm - N/A   Clear
10:15 PM 28.4 °F 23.3 °F 26.6 °F 93% 29.77 in 10.0 mi SSE 4.6 mph - N/A   Clear
10:35 PM 24.8 °F - 23.0 °F 93% 29.78 in 10.0 mi Calm Calm - N/A   Clear
10:55 PM 24.8 °F - 23.0 °F 93% 29.78 in 10.0 mi Calm Calm - N/A   Clear
11:15 PM 23.0 °F - 21.2 °F 93% 29.78 in 10.0 mi Calm Calm - N/A   Clear
11:35 PM 26.6 °F - 24.8 °F 93% 29.78 in - Calm Calm - N/A   Unknown
11:55 PM 21.2 °F - 17.6 °F 86% 29.78 in 10.0 mi Calm Calm - N/A   Clear